Almeria, Spain

4:19 PM CEST on July 24, 2016 (GMT +0200)
Almeria

Weather History for LEAM - December, 2013

Change the Weather History Date:

Tuesday, December 17, 2013

  Actual Average Record
Temperature  
Mean Temperature 60 °F -  
Max Temperature 66 °F 59 °F 71 °F (2015)
Min Temperature 53 °F 47 °F 37 °F (2010)
Degree Days  
Heating Degree Days 6    
Growing Degree Days 10 (Base 50)    
Moisture  
Dew Point 47 °F    
Average Humidity 61    
Maximum Humidity 82    
Minimum Humidity 38    
Precipitation  
Precipitation 0.00 in 0.03 in - ()
Sea Level Pressure  
Sea Level Pressure 30.33 in    
Wind  
Wind Speed 7 mph ()    
Max Wind Speed 13 mph    
Max Gust Speed 18 mph    
Visibility 7.8 miles    
Events      
Averages and records for this station are not official NWS values.
T = Trace of Precipitation, MM = Missing Value Source: Averaged Metar Reports

Daily Weather History Graph

Daily Weather History Graph

Search for Another Location

Airport or City:

Trip Planner

Search our weather history database for the weather conditions in past years. The results will help you decide how hot, cold, wet, or windy it might be!

Date:

Astronomy

Dec. 17, 2013 Rise Set
Actual Time 8:16 AM CET 5:54 PM CET
Civil Twilight 7:47 AM CET 6:23 PM CET
Nautical Twilight 7:14 AM CET 6:56 PM CET
Astronomical Twilight 6:43 AM CET 7:28 PM CET
Moon 6:21 PM CET (12/17) 8:02 AM CET (12/17)
Length of Visible Light 10h 36m
Length of Day
9h 38m
Full, 100% of the Moon is Illuminated
Dec 17
Full
Dec 25
Last Quarter
Jan 1
New
Jan 8
First Quarter
Jan 16
Full

Hourly Weather History & Observations

Time (CET) Temp. Dew Point Humidity Pressure Visibility Wind Dir Wind Speed Gust Speed Precip Events Conditions
12:00 AM 54 °F 45 °F 64% 30.37 in - NW 6.9 mph - -  
1:00 AM 54 °F 45 °F 62% 30.35 in - NNE 5.8 mph - -  
2:00 AM 55 °F 45 °F 60% 30.33 in - NNW 5.8 mph - -  
3:00 AM 56 °F 44 °F 55% 30.34 in - NNW 3.5 mph - -  
4:00 AM 56 °F 44 °F 54% 30.34 in - NW 8.1 mph - -  
5:00 AM 56 °F 44 °F 54% 30.32 in - NW 9.2 mph - -  
5:00 AM 55.4 °F 44.6 °F 67% 30.30 in - NW 9.2 mph - N/A   Clear
5:30 AM 55.4 °F 44.6 °F 67% 30.30 in - NW 8.1 mph - N/A   Clear
6:00 AM 56 °F 44 °F 54% 30.32 in - NW 9.2 mph - -  
6:00 AM 55.4 °F 44.6 °F 67% 30.30 in - NW 9.2 mph - N/A   Clear
6:30 AM 55.4 °F 44.6 °F 67% 30.30 in - NNW 9.2 mph - N/A   Clear
7:00 AM 56 °F 45 °F 56% 30.32 in 19 mi NW 9.2 mph - -   Overcast
7:00 AM 55.4 °F 44.6 °F 67% 30.30 in - NW 9.2 mph - N/A   Clear
7:30 AM 55.4 °F 44.6 °F 67% 30.33 in - NNW 8.1 mph - N/A   Clear
8:00 AM 55 °F 44 °F 56% 30.35 in - NNW 4.6 mph - -  
8:00 AM 55.4 °F 44.6 °F 67% 30.33 in - NNW 4.6 mph - N/A   Clear
8:30 AM 53.6 °F 44.6 °F 72% 30.33 in - North 6.9 mph - N/A   Clear
9:00 AM 56 °F 44 °F 55% 30.36 in - NNW 9.2 mph - -  
9:00 AM 55.4 °F 44.6 °F 67% 30.36 in - NNW 9.2 mph - N/A   Clear
9:30 AM 57.2 °F 44.6 °F 63% 30.36 in 6.2 mi NNW 8.1 mph - N/A   Partly Cloudy
10:00 AM 60 °F 44 °F 44% 30.38 in 16 mi NW 8.1 mph - -   Scattered Clouds
10:00 AM 59.0 °F 42.8 °F 55% 30.36 in 6.2 mi NW 6.9 mph 18.4 mph N/A   Partly Cloudy
10:30 AM 60.8 °F 42.8 °F 52% 30.36 in 6.2 mi NW 8.1 mph - N/A   Partly Cloudy
11:00 AM 60 °F 44 °F 45% 30.38 in - NNW 4.6 mph - -  
11:00 AM 60.8 °F 44.6 °F 55% 30.36 in 6.2 mi NNW 5.8 mph - N/A   Partly Cloudy
11:30 AM 64.4 °F 42.8 °F 45% 30.36 in 6.2 mi NNW 3.5 mph - N/A   Partly Cloudy
12:00 PM 64 °F 45 °F 38% 30.37 in - NNW 2.3 mph - -  
12:00 PM 66.2 °F 42.8 °F 43% 30.36 in 6.2 mi Variable 2.3 mph - N/A   Partly Cloudy
12:30 PM 64.4 °F 46.4 °F 52% 30.33 in 6.2 mi Variable 1.2 mph - N/A   Partly Cloudy
1:00 PM 64 °F 48 °F 45% 30.34 in 16 mi SSW 8.1 mph - -   Scattered Clouds
1:00 PM 64.4 °F 46.4 °F 52% 30.33 in 6.2 mi SSW 6.9 mph - N/A   Partly Cloudy
1:30 PM 62.6 °F 48.2 °F 59% 30.33 in 6.2 mi SW 11.5 mph - N/A   Partly Cloudy
2:00 PM 64 °F 48 °F 46% 30.33 in - SW 12.7 mph - -  
2:00 PM 62.6 °F 48.2 °F 59% 30.33 in 6.2 mi SW 12.7 mph - N/A   Partly Cloudy
2:30 PM 64.4 °F 48.2 °F 56% 30.30 in 6.2 mi SW 11.5 mph - N/A   Partly Cloudy
3:00 PM 64 °F 50 °F 49% 30.31 in - SW 11.5 mph - -  
3:00 PM 64.4 °F 50.0 °F 59% 30.30 in 6.2 mi SW 11.5 mph - N/A   Partly Cloudy
3:30 PM 62.6 °F 50.0 °F 63% 30.30 in 6.2 mi SSW 9.2 mph - N/A   Partly Cloudy
4:00 PM 64 °F 50 °F 50% 30.31 in 16 mi South 8.1 mph - -   Scattered Clouds
4:00 PM 62.6 °F 48.2 °F 59% 30.30 in 6.2 mi South 6.9 mph - N/A   Partly Cloudy
4:30 PM 62.6 °F 50.0 °F 63% 30.30 in 6.2 mi South 6.9 mph - N/A   Partly Cloudy
5:00 PM 62 °F 50 °F 55% 30.32 in - South 6.9 mph - -  
5:00 PM 62.6 °F 50.0 °F 63% 30.30 in 6.2 mi South 6.9 mph - N/A   Partly Cloudy
5:30 PM 60.8 °F 50.0 °F 68% 30.30 in 6.2 mi SSW 6.9 mph - N/A   Partly Cloudy
6:00 PM 60 °F 51 °F 63% 30.33 in - SSW 8.1 mph - -  
6:00 PM 60.8 °F 50.0 °F 68% 30.33 in 6.2 mi SSW 6.9 mph - N/A   Partly Cloudy
6:30 PM 60.8 °F 51.8 °F 72% 30.33 in 6.2 mi South 6.9 mph - N/A   Scattered Clouds
7:00 PM 60 °F 52 °F 67% 30.35 in 12 mi South 4.6 mph - -   Partly Cloudy
7:00 PM 60.8 °F 51.8 °F 72% 30.33 in 6.2 mi South 3.5 mph - N/A   Scattered Clouds
7:30 PM 59.0 °F 50.0 °F 72% 30.33 in 6.2 mi SW 6.9 mph - N/A   Scattered Clouds
8:00 PM 59.0 °F 51.8 °F 77% 30.33 in 6.2 mi SW 6.9 mph - N/A   Scattered Clouds
8:30 PM 59.0 °F 50.0 °F 72% 30.33 in 6.2 mi SW 6.9 mph - N/A   Scattered Clouds
9:00 PM 58 °F 51 °F 71% 30.36 in - SW 5.8 mph - -  
9:00 PM 57.2 °F 50.0 °F 77% 30.33 in 6.2 mi WSW 4.6 mph - N/A   Partly Cloudy
9:30 PM 57.2 °F 50.0 °F 77% 30.36 in 6.2 mi West 6.9 mph - N/A   Partly Cloudy
10:00 PM 55 °F 49 °F 75% 30.36 in 12 mi NW 6.9 mph - -   Scattered Clouds
10:00 PM 55.4 °F 50.0 °F 82% 30.36 in 6.2 mi NW 6.9 mph - N/A   Partly Cloudy
10:30 PM 53.6 °F 48.2 °F 82% 30.36 in 6.2 mi NW 5.8 mph - N/A   Partly Cloudy
11:00 PM 54 °F 48 °F 74% 30.37 in - NW 5.8 mph - -